Flag for Japan Weather past 2 weeks in Yokosuka, Japan

Now
86 °F

Partly sunny.


Feels Like: 89 °F
Forecast: 76 / 85 °F
Wind: 20 mph from South

Location: Tokyo International Airport

Current Time: Jul 30, 2014 at 4:33:23 PM

Latest Report: Jul 30, 2014 at 4:00 PM


Visibility: N/A

Pressure: 29.98 "Hg

Humidity: 55%

Dew point: 68 °F

Location of YokosukaLocation

Historic Weather in Yokosuka — Graph

°F

Yokosuka temperature yesterday

Maximum temperature yesterday: 88 °F (at 1:00 PM)
Minimum temperature yesterday: 75 °F (at 2:00 AM)
Average temperature yesterday: 81 °F

Past Weeks' High & Low Weather Summary

 TemperatureHumidityPressure
High91 °F (Jul 24, 4:00 PM)100% (Jul 18, 4:00 AM)30.04 "Hg (Jul 18, 4:00 AM)
Low72 °F (Jul 19, 2:00 AM)49% (Jul 29, 3:30 PM)29.53 "Hg (Jul 27, 1:30 PM)
Average80 °F78%29.82 "Hg
* Reported Jul 15 3:00 PM — Jul 30 3:30 PM, Yokosuka, Weather by CustomWeather, © 2014

Note: Actual official high and low records may vary slightly from our data, if they occured in-between our weather recording intervals... More about our weather records

Advertising

Yokosuka weather history for previous 24 hours

 ConditionsComfort  
Time TempWeatherWind HumidityBarometerVisibility
3:30 PM
Jul 30
86 °FPartly sunny.16 mph55%29.98 "HgN/A
3:00 PM88 °FPartly sunny.16 mph55%29.98 "HgN/A
2:30 PM88 °FScattered clouds.15 mph59%29.98 "HgN/A
2:00 PM88 °FScattered clouds.13 mph59%29.98 "HgN/A
1:30 PM88 °FPartly sunny.14 mph55%29.98 "HgN/A
1:00 PM88 °FScattered clouds.14 mph55%29.98 "HgN/A
12:30 PM88 °FScattered clouds.14 mph55%30.01 "HgN/A
12:00 PM86 °FScattered clouds.13 mph59%30.01 "HgN/A
11:30 AM86 °FScattered clouds.13 mph59%30.01 "HgN/A
11:00 AM86 °FPassing clouds.12 mph59%30.01 "HgN/A
10:30 AM86 °FPassing clouds.10 mph59%30.01 "HgN/A
10:00 AM84 °FPassing clouds.12 mph62%30.01 "HgN/A
9:30 AM82 °FPassing clouds.10 mph70%30.04 "HgN/A
9:00 AM82 °FPassing clouds.3 mph74%30.01 "HgN/A
8:30 AM79 °FScattered clouds.5 mph79%30.01 "HgN/A
8:00 AM79 °FScattered clouds.3 mph79%30.01 "HgN/A
7:30 AM79 °FScattered clouds.6 mph79%30.04 "HgN/A
7:00 AM79 °FScattered clouds.5 mph79%30.01 "HgN/A
6:30 AM79 °FScattered clouds.2 mph79%30.01 "HgN/A
6:00 AM79 °FScattered clouds.7 mph79%30.01 "HgN/A
5:30 AM77 °FScattered clouds.7 mph83%30.01 "HgN/A
5:00 AM77 °FPassing clouds.7 mph83%30.01 "HgN/A
4:30 AM77 °FPassing clouds.7 mph83%30.01 "HgN/A
4:00 AM77 °FPassing clouds.8 mph83%30.01 "HgN/A
3:30 AM77 °FPassing clouds.7 mph83%29.98 "HgN/A
3:00 AM77 °FPassing clouds.9 mph83%29.98 "HgN/A
2:30 AM77 °FPassing clouds.10 mph83%29.98 "HgN/A
2:00 AM75 °FPassing clouds.10 mph89%29.98 "HgN/A
1:30 AM77 °FPassing clouds.12 mph83%29.98 "HgN/A
1:00 AM77 °FPassing clouds.12 mph83%29.98 "HgN/A
12:30 AM77 °FPassing clouds.12 mph83%29.98 "HgN/A
12:00 AM77 °FPassing clouds.13 mph83%29.98 "HgN/A
11:30 PM
Jul 29
77 °FPassing clouds.13 mph79%29.98 "HgN/A
11:00 PM77 °FPassing clouds.12 mph79%29.98 "HgN/A
10:30 PM79 °FPassing clouds.14 mph74%29.98 "HgN/A
10:00 PM79 °FPassing clouds.13 mph74%29.98 "HgN/A
9:30 PM79 °FPassing clouds.14 mph74%29.98 "HgN/A
9:00 PM79 °FPassing clouds.15 mph74%29.98 "HgN/A
8:30 PM79 °FPartly cloudy.17 mph74%29.98 "HgN/A
8:00 PM79 °FPassing clouds.17 mph74%29.98 "HgN/A
7:30 PM81 °FPassing clouds.16 mph66%29.98 "HgN/A
7:00 PM81 °FClear.16 mph66%29.95 "Hg10 mi
6:30 PM81 °FSunny.17 mph66%29.95 "Hg10 mi
6:00 PM82 °FSunny.16 mph62%29.95 "Hg10 mi
5:30 PM82 °FSunny.15 mph58%29.92 "Hg10 mi
5:00 PM84 °FScattered clouds.17 mph55%29.92 "HgN/A
4:30 PM84 °FPartly sunny.18 mph55%29.92 "HgN/A
4:00 PM86 °FPartly sunny.18 mph52%29.92 "HgN/A
Weather by CustomWeather, © 2014

See weather overviewHow to use our weather pages